Location: Arbon
(43.0005°N, 0.7472°E)
Time: 09:53:44
(UTC+00:00)

SR - Pass Details

Date: 03 December 2020
Orbit: 575 x 880 km, 66.7° (Epoch: 21 January)

Event Time Altitude Azimuth Distance (km) Brightness Sun altitude
Rises 17:54:25 0° 233° (SW) 2,811 ? -16.2°
Reaches altitude 10° 17:56:43 10° 242° (WSW) 1,939 ? -16.6°
Maximum altitude 18:00:44 36° 309° (NW) 1,003 ? -17.4°
Enters shadow 18:04:40 12° 15° (NNE) 1,943 ? -18.1°
Drops below altitude 10° 18:05:03 10° 17° (NNE) 2,087 - -18.1°
Sets 18:07:38 0° 26° (NNE) 3,057 - -18.6°
